OK2ZAW-19 Weather Reports


time (UTC)temp
F
wind
direction
speed
knots
gust
knots
rain 1hr
in
rain 24hr
in
rain mn
in
humidity
%
barometer
mb
20260905183209 56 315 0.9 1.7 0.00 0.00 0.00 99 1022.2
20260905182659 56 315 0.9 1.7 0.00 0.00 0.00 99 1022.2
20260905180616 57 315 0.9 1.7 0.00 0.00 0.00 97 1022.0
20260905180105 57 315 0.9 1.7 0.00 0.00 0.00 95 1022.0
20260905175554 57 315 0.0 0.9 0.00 0.00 0.00 95 1021.9
20260905175044 57 315 0.9 1.7 0.00 0.00 0.00 94 1021.9
20260905174533 58 315 0.9 1.7 0.00 0.00 0.00 92 1021.8
20260905174022 58 315 0.0 0.9 0.00 0.00 0.00 89 1021.7
20260905173511 58 315 0.9 1.7 0.00 0.00 0.00 87 1021.6
20260905173001 59 315 0.9 1.7 0.00 0.00 0.00 86 1021.5
20260905171939 60 315 0.9 1.7 0.00 0.00 0.00 82 1021.5
20260905171428 61 315 0.9 1.7 0.00 0.00 0.00 81 1021.4
20260905170917 61 315 0.9 2.6 0.00 0.00 0.00 80 1021.4
20260905170406 62 315 0.9 3.5 0.00 0.00 0.00 80 1021.3
20260905165855 63 315 1.7 4.3 0.00 0.00 0.00 81 1021.3
20260905165344 63 315 1.7 3.5 0.00 0.00 0.00 80 1021.3
20260905164322 65 315 1.7 2.6 0.00 0.00 0.00 75 1021.0
20260905163811 66 315 1.7 3.5 0.00 0.00 0.00 74 1020.9
20260905163259 65 315 1.7 2.6 0.00 0.00 0.00 76 1020.9
20260905162748 65 315 2.6 3.5 0.00 0.00 0.00 78 1020.9
20260905162237 64 315 1.7 4.3 0.00 0.00 0.00 80 1020.9
20260905161726 63 315 1.7 3.5 0.00 0.00 0.00 82 1020.9
20260905160704 62 315 1.7 3.5 0.00 0.00 0.00 86 1020.8
20260905155642 62 315 2.6 4.3 0.00 0.00 0.00 81 1020.8
20260905155131 63 315 2.6 4.3 0.00 0.00 0.00 77 1020.8
20260905154620 63 315 2.6 4.3 0.00 0.00 0.00 73 1020.5
20260905154109 64 315 4.3 13.0 0.00 0.00 0.00 69 1020.6
20260905153558 65 315 5.2 10.4 0.00 0.00 0.00 64 1020.6
20260905153046 66 315 2.6 6.1 0.00 0.00 0.00 61 1020.5
20260905152535 67 315 3.5 5.2 0.00 0.00 0.00 59 1020.5
20260905151513 66 315 2.6 3.5 0.00 0.00 0.00 59 1020.5
20260905151001 66 315 2.6 5.2 0.00 0.00 0.00 61 1020.5
20260905150450 65 315 3.5 5.2 0.00 0.00 0.00 63 1020.5
20260905145939 65 315 2.6 6.1 0.00 0.00 0.00 63 1020.5
20260905145428 65 315 2.6 6.1 0.00 0.00 0.00 60 1020.4
20260905144917 66 315 2.6 4.3 0.00 0.00 0.00 58 1020.4
20260905144406 66 315 2.6 6.1 0.00 0.00 0.00 56 1020.4
20260905143854 67 315 4.3 7.0 0.00 0.00 0.00 54 1020.5
20260905143343 69 315 2.6 4.3 0.00 0.00 0.00 52 1020.6
20260905142831 70 315 3.5 5.2 0.00 0.00 0.00 50 1020.5
20260905142320 72 315 3.5 7.0 0.00 0.00 0.00 49 1020.5
20260905141257 72 315 2.6 5.2 0.00 0.00 0.00 48 1020.7
20260905140745 71 315 3.5 6.1 0.00 0.00 0.00 48 1020.7
20260905135722 72 315 3.5 5.2 0.00 0.00 0.00 48 1020.6
20260905135210 72 315 3.5 4.3 0.00 0.00 0.00 49 1020.7
20260905134658 71 315 4.3 6.1 0.00 0.00 0.00 49 1020.6
20260905133635 71 315 3.5 6.1 0.00 0.00 0.00 50 1020.6
20260905133124 71 315 2.6 5.2 0.00 0.00 0.00 51 1020.7
20260905132612 70 315 3.5 7.8 0.00 0.00 0.00 50 1020.7
20260905132101 70 315 2.6 5.2 0.00 0.00 0.00 51 1020.7
20260905131549 70 315 2.6 4.3 0.00 0.00 0.00 52 1020.8
20260905130526 68 315 2.6 5.2 0.00 0.00 0.00 57 1020.8
20260905130015 67 315 2.6 7.0 0.00 0.00 0.00 56 1020.9
20260905125503 66 315 3.5 6.1 0.00 0.00 0.00 56 1021.1
20260905124441 68 315 3.5 0.0 0.00 0.00 0.00 57 1020.9
20260905123929 67 315 4.3 9.6 0.00 0.00 0.00 57 1020.8
20260905123418 66 315 3.5 0.0 0.00 0.00 0.00 59 1021.0
20260905122907 66 315 2.6 4.3 0.00 0.00 0.00 61 1020.9
20260905122356 66 315 4.3 8.7 0.00 0.00 0.00 58 1021.0
20260905121844 66 315 4.3 7.8 0.00 0.00 0.00 60 1020.9
20260905121333 66 315 3.5 5.2 0.00 0.00 0.00 62 1020.8
20260905120822 64 315 2.6 4.3 0.00 0.00 0.00 74 1020.9
20260905120311 64 315 3.5 6.1 0.00 0.00 0.00 72 1020.9
20260905115800 65 315 2.6 6.1 0.00 0.00 0.00 69 1020.8
20260905115249 66 315 4.3 7.0 0.00 0.00 0.00 69 1020.8
20260905114737 65 315 2.6 5.2 0.00 0.00 0.00 71 1020.9
20260905114226 64 315 3.5 6.1 0.00 0.00 0.00 70 1020.9
20260905113715 65 315 4.3 7.0 0.00 0.00 0.00 68 1021.0
20260905113204 66 315 2.6 4.3 0.00 0.00 0.00 65 1020.9
20260905112652 66 315 3.5 6.1 0.00 0.00 0.00 69 1021.0
20260905112141 65 315 3.5 6.1 0.00 0.00 0.00 73 1020.9
20260905111630 65 315 2.6 4.3 0.00 0.00 0.00 78 1020.8
20260905111119 64 315 3.5 5.2 0.00 0.00 0.00 83 1021.0
20260905110608 64 315 3.5 0.0 0.00 0.00 0.00 80 1020.8
20260905110057 64 315 2.6 6.1 0.00 0.00 0.00 83 1020.9
20260905105545 64 315 2.6 4.3 0.00 0.00 0.00 82 1020.9
20260905105034 65 315 2.6 5.2 0.00 0.00 0.00 87 1020.8
20260905104523 64 315 3.5 7.0 0.00 0.00 0.00 90 1020.8
20260905104012 64 315 2.6 3.5 0.00 0.00 0.00 88 1020.7
20260905103501 65 315 3.5 5.2 0.00 0.00 0.00 92 1020.7
20260905102949 65 315 3.5 5.2 0.00 0.00 0.00 96 1020.8
20260905100905 64 315 3.5 7.0 0.00 0.00 0.00 10 1020.7
20260905100354 63 315 2.6 6.1 0.00 0.00 0.00 10 1020.8
20260905095842 62 315 2.6 5.2 0.00 0.00 0.00 10 1020.8
20260905095331 62 315 2.6 5.2 0.00 0.00 0.00 10 1020.8
20260905094820 61 315 2.6 4.3 0.00 0.00 0.00 10 1020.9
20260905094309 60 315 3.5 5.2 0.00 0.00 0.00 10 1020.9
20260905093759 60 315 2.6 5.2 0.00 0.00 0.00 10 1021.0
20260905093248 59 315 2.6 3.5 0.00 0.00 0.00 10 1020.9
20260905092737 58 315 2.6 5.2 0.00 0.00 0.00 10 1020.9
20260905091715 58 315 2.6 7.0 0.00 0.00 0.00 10 1021.0
20260905091205 58 315 1.7 3.5 0.00 0.00 0.00 10 1020.9
20260905090654 57 315 2.6 5.2 0.00 0.00 0.00 10 1020.9
20260905090143 57 315 2.6 5.2 0.00 0.00 0.00 10 1020.9
20260905085633 57 315 2.6 3.5 0.00 0.00 0.00 10 1020.8
20260905085122 56 315 1.7 3.5 0.00 0.00 0.00 10 1020.9
20260905084611 56 315 1.7 4.3 0.00 0.00 0.00 10 1020.8
20260905084101 55 315 2.6 5.2 0.00 0.00 0.00 10 1020.7
20260905083550 55 315 2.6 4.3 0.00 0.00 0.00 10 1020.7
20260905083040 55 315 1.7 0.0 0.00 0.00 0.00 10 1020.5
20260905082529 55 315 2.6 5.2 0.00 0.00 0.00 10 1020.6
20260905082018 55 315 2.6 5.2 0.00 0.00 0.00 10 1020.6
20260905081508 54 315 2.6 4.3 0.00 0.00 0.00 10 1020.6
20260905080957 54 315 2.6 3.5 0.00 0.00 0.00 10 1020.6
20260905080447 54 315 2.6 4.3 0.00 0.00 0.00 10 1020.6
20260905075936 53 315 3.5 5.2 0.00 0.00 0.00 10 1020.6
20260905075426 53 315 2.6 4.3 0.00 0.00 0.00 10 1020.4
20260905074915 52 315 1.7 3.5 0.00 0.00 0.00 10 1020.3
20260905074405 52 315 1.7 3.5 0.00 0.00 0.00 10 1020.1
20260905073855 52 315 1.7 3.5 0.00 0.00 0.00 10 1020.1
20260905073344 51 315 1.7 3.5 0.00 0.00 0.00 10 1020.0
20260905072834 51 315 1.7 3.5 0.00 0.00 0.00 10 1019.9
20260905072324 52 315 1.7 4.3 0.00 0.00 0.00 10 1019.9
20260905071813 52 315 1.7 3.5 0.00 0.00 0.00 10 1019.7
20260905071303 52 315 1.7 2.6 0.00 0.00 0.00 10 1019.8
20260905070752 51 315 1.7 3.5 0.00 0.00 0.00 10 1019.9
20260905070242 51 315 1.7 2.6 0.00 0.00 0.00 10 1020.0
20260905065732 51 315 1.7 3.5 0.00 0.00 0.00 10 1020.0
20260905065221 51 315 1.7 3.5 0.00 0.00 0.00 10 1020.0
20260905064711 51 315 2.6 4.3 0.00 0.00 0.00 10 1019.9
20260905064201 50 315 2.6 4.3 0.00 0.00 0.00 10 1019.9
20260905063650 50 315 1.7 3.5 0.00 0.00 0.00 10 1019.6
20260905063140 50 315 3.5 5.2 0.00 0.00 0.00 10 1020.0
20260905062119 50 315 2.6 4.3 0.00 0.00 0.00 10 1020.0
20260905061609 50 315 1.7 4.3 0.00 0.00 0.00 10 1019.7
20260905061059 50 315 1.7 3.5 0.00 0.00 0.00 10 1019.7
20260905060548 50 315 1.7 3.5 0.00 0.00 0.00 10 1019.3
20260905060038 50 315 2.6 3.5 0.00 0.00 0.00 10 1019.5
20260905055528 50 315 2.6 3.5 0.00 0.00 0.00 10 1019.8
20260905055018 50 315 2.6 5.2 0.00 0.00 0.00 10 1019.5
20260905054507 49 315 3.5 6.1 0.00 0.00 0.00 10 1018.4
20260905053957 49 315 3.5 5.2 0.00 0.00 0.00 10 1018.2
20260905053447 49 315 2.6 3.5 0.00 0.00 0.00 10 1018.6
20260905052936 50 315 1.7 3.5 0.00 0.00 0.00 10 1019.0
20260905052426 50 315 1.7 3.5 0.00 0.00 0.00 10 1019.1
20260905051916 50 315 1.7 2.6 0.00 0.00 0.00 10 1019.0
20260905051406 50 315 2.6 4.3 0.00 0.00 0.00 10 1019.1
20260905050855 50 315 1.7 4.3 0.00 0.00 0.00 10 1019.2
20260905050345 50 315 1.7 3.5 0.00 0.00 0.00 10 1019.0
20260905045835 50 315 1.7 5.2 0.00 0.00 0.00 10 1019.2
20260905045324 51 315 1.7 3.5 0.00 0.00 0.00 10 1019.3
20260905044814 51 315 2.6 6.1 0.00 0.00 0.00 10 1019.5
20260905044304 51 315 2.6 6.1 0.00 0.00 0.00 10 1019.1
20260905043753 52 315 1.7 2.6 0.00 0.00 0.00 10 1019.0
20260905043243 52 315 2.6 4.3 0.00 0.00 0.00 10 1018.9
20260905042732 52 315 1.7 3.5 0.00 0.00 0.00 10 1019.0
20260905042222 53 315 1.7 4.3 0.00 0.00 0.00 10 1019.0
20260905041201 53 315 2.6 5.2 0.00 0.00 0.00 10 1018.7
20260905040651 53 315 0.9 3.5 0.00 0.00 0.00 10 1018.5
20260905040140 53 315 0.9 2.6 0.00 0.00 0.00 10 1018.2
20260905035119 53 315 0.9 1.7 0.00 0.00 0.00 10 1018.3
20260905034609 53 315 0.9 2.6 0.00 0.00 0.00 10 1018.1
20260905034058 54 315 0.9 2.6 0.00 0.00 0.00 10 1017.7
20260905033548 54 315 1.7 2.6 0.00 0.00 0.00 10 1018.7
20260905033037 54 315 0.9 1.7 0.00 0.00 0.00 10 1017.8
20260905032527 54 315 1.7 2.6 0.00 0.00 0.00 10 1017.9
20260905032016 54 315 0.9 2.6 0.00 0.00 0.00 10 1017.5
20260905031506 54 315 0.9 1.7 0.00 0.00 0.00 10 1017.5
20260905030955 54 315 0.9 1.7 0.00 0.00 0.00 10 1017.6
20260905030445 54 315 0.9 2.6 0.00 0.00 0.00 10 1017.6
20260905025424 55 315 0.9 1.7 0.00 0.00 0.00 10 1018.4
20260905024913 54 315 1.7 2.6 0.00 0.00 0.00 10 1017.9
20260905024403 55 315 0.9 2.6 0.00 0.00 0.00 10 1017.7
20260905023852 55 315 0.9 1.7 0.00 0.00 0.00 10 1017.6
20260905023341 55 315 0.9 2.6 0.00 0.00 0.00 10 1017.6
20260905022831 55 315 0.9 2.6 0.00 0.00 0.00 10 1017.5
20260905022320 55 315 0.9 2.6 0.00 0.00 0.00 10 1017.4
20260905021810 55 315 1.7 3.5 0.00 0.00 0.00 10 1017.3
20260905021259 55 315 0.9 1.7 0.00 0.00 0.00 10 1017.1
20260905020749 56 315 0.9 1.7 0.00 0.00 0.00 10 1017.2
20260905020238 56 315 0.9 1.7 0.00 0.00 0.00 10 1017.1
20260905015727 57 315 0.9 2.6 0.00 0.00 0.00 10 1017.2
20260905015217 57 315 0.9 1.7 0.00 0.00 0.00 10 1016.6
20260905014706 57 315 0.0 1.7 0.00 0.00 0.00 10 1016.6
20260905014155 57 315 0.9 1.7 0.00 0.00 0.00 10 1016.8
20260905013645 57 315 0.9 0.9 0.00 0.00 0.00 10 1016.8
20260905012623 57 315 0.9 2.6 0.00 0.00 0.00 10 1016.7
20260905012113 57 315 1.7 2.6 0.00 0.00 0.00 10 1016.7
20260905011602 57 315 1.7 2.6 0.00 0.00 0.00 10 1016.9
20260905011051 57 315 0.9 2.6 0.00 0.00 0.00 10 1016.6
20260905010541 57 315 1.7 3.5 0.00 0.00 0.00 10 1016.7
20260905010030 58 315 1.7 2.6 0.00 0.00 0.00 10 1016.6
20260905005519 58 315 0.9 2.6 0.00 0.00 0.00 10 1016.5
20260905005008 59 315 1.7 4.3 0.00 0.00 0.00 10 1016.5
20260905004458 59 315 1.7 5.2 0.00 0.00 0.00 10 1016.5
20260905003947 59 315 1.7 2.6 0.00 0.00 0.00 10 1016.4
20260905003436 59 315 1.7 2.6 0.00 0.00 0.00 10 1016.4
20260905002925 60 315 1.7 4.3 0.00 0.00 0.00 10 1016.3
20260905002414 60 315 0.9 2.6 0.00 0.00 0.00 10 1016.1
20260905001352 61 315 0.9 2.6 0.00 0.00 0.00 10 1016.0
20260905000842 62 315 0.9 2.6 0.00 0.00 0.00 10 1016.0
20260904235820 63 315 0.9 2.6 0.00 0.00 0.00 10 1015.8
20260904235308 64 315 1.7 3.5 0.00 0.00 0.00 10 1015.5
20260904234757 65 315 1.7 5.2 0.00 0.00 0.00 10 1015.3
20260904234246 66 315 1.7 3.5 0.00 0.00 0.00 98 1015.0
20260904233735 66 315 1.7 3.5 0.00 0.00 0.00 94 1014.7
20260904232712 66 315 1.7 5.2 0.00 0.00 0.00 92 1014.4
20260904232201 66 315 1.7 2.6 0.00 0.00 0.00 91 1014.4
20260904231650 67 315 2.6 3.5 0.00 0.00 0.00 90 1014.4
20260904231139 67 315 2.6 4.3 0.00 0.00 0.00 90 1014.4
20260904230627 67 315 2.6 3.5 0.00 0.00 0.00 90 1014.4
20260904230116 67 315 2.6 3.5 0.00 0.00 0.00 89 1014.4
20260904225605 67 315 2.6 3.5 0.00 0.00 0.00 89 1014.2
20260904225054 67 315 2.6 3.5 0.00 0.00 0.00 90 1014.3
20260904224542 67 315 2.6 3.5 0.00 0.00 0.00 90 1014.3
20260904224031 67 315 2.6 3.5 0.00 0.00 0.00 90 1014.3
20260904223520 66 315 2.6 5.2 0.00 0.00 0.00 90 1014.4
20260904223009 66 315 2.6 3.5 0.00 0.00 0.00 91 1014.4
20260904222457 66 315 2.6 4.3 0.00 0.00 0.00 90 1014.4
20260904221946 66 315 2.6 3.5 0.00 0.00 0.00 90 1014.4
20260904221435 66 315 2.6 4.3 0.00 0.00 0.00 89 1014.4
20260904220924 67 315 2.6 3.5 0.00 0.00 0.00 87 1014.4
20260904220412 67 315 2.6 4.3 0.00 0.00 0.00 87 1014.4
20260904215350 67 315 2.6 3.5 0.00 0.00 0.00 84 1014.3
20260904214839 67 315 2.6 3.5 0.00 0.00 0.00 83 1014.3
20260904214327 67 315 2.6 3.5 0.00 0.00 0.00 83 1014.3
20260904213816 67 315 2.6 3.5 0.00 0.00 0.00 82 1014.2
20260904213305 67 315 2.6 4.3 0.00 0.00 0.00 81 1014.3
20260904212753 67 315 2.6 3.5 0.00 0.00 0.00 81 1014.2
20260904212242 67 315 2.6 3.5 0.00 0.00 0.00 81 1014.4
20260904211731 67 315 2.6 3.5 0.00 0.00 0.00 81 1014.3
20260904211219 68 315 2.6 4.3 0.00 0.00 0.00 80 1014.3
20260904210708 68 315 2.6 3.5 0.00 0.00 0.00 79 1014.2
20260904205645 68 315 2.6 3.5 0.00 0.00 0.00 78 1014.3
20260904205134 68 315 2.6 4.3 0.00 0.00 0.00 77 1014.4
20260904204623 68 315 2.6 3.5 0.00 0.00 0.00 78 1014.4
20260904204111 68 315 2.6 3.5 0.00 0.00 0.00 78 1014.4
20260904203600 68 315 2.6 3.5 0.00 0.00 0.00 77 1014.4
20260904203048 68 315 2.6 3.5 0.00 0.00 0.00 78 1014.4
20260904202537 68 315 2.6 3.5 0.00 0.00 0.00 77 1014.4
20260904202026 69 315 3.5 4.3 0.00 0.00 0.00 77 1014.5
20260904201514 69 315 2.6 4.3 0.00 0.00 0.00 77 1014.6
20260904201003 69 315 2.6 3.5 0.00 0.00 0.00 77 1014.6
20260904200452 69 315 3.5 3.5 0.00 0.00 0.00 77 1014.6
20260904195940 69 315 2.6 3.5 0.00 0.00 0.00 77 1014.6
20260904195429 69 315 2.6 4.3 0.00 0.00 0.00 77 1014.6
20260904194917 69 315 2.6 3.5 0.00 0.00 0.00 77 1014.7
20260904194406 69 315 2.6 3.5 0.00 0.00 0.00 77 1014.7
20260904193854 69 315 2.6 3.5 0.00 0.00 0.00 77 1014.6
20260904193343 69 315 2.6 4.3 0.00 0.00 0.00 76 1014.7
20260904192832 70 315 3.5 4.3 0.00 0.00 0.00 75 1014.7
20260904192321 70 315 3.5 4.3 0.00 0.00 0.00 76 1014.7
20260904191809 69 315 3.5 3.5 0.00 0.00 0.00 76 1014.8
20260904191257 69 315 2.6 2.6 0.00 0.00 0.00 77 1015.0
20260904190746 70 315 2.6 3.5 0.00 0.00 0.00 76 1015.1
20260904185723 70 315 1.7 2.6 0.00 0.00 0.00 76 1015.2
20260904185211 70 315 1.7 2.6 0.00 0.00 0.00 76 1015.2
20260904184700 70 315 1.7 2.6 0.00 0.00 0.00 76 1015.1
20260904184148 70 315 1.7 2.6 0.00 0.00 0.00 76 1015.1
20260904183637 70 315 1.7 3.5 0.00 0.00 0.00 76 1015.2